Powrót do katalogu

CZ-6A DEB

AktywnyPO
NORAD 60830·DEBRIS·🇨🇳 China

Wystrzelony Aug 6, 2024 z Taiyuan Satellite Launch Center

Loading…

Następne Przeloty (najbliższe 24 godziny)

TLE

ŚwieżeSource: Space-Track

Epoka: Sep 14, 2026, 06:22 UTC

1 60830U 24140HH  26257.26570629  .00000268  00000-0  16584-3 0  9990
2 60830  88.9006 259.5683 0147612 342.9905  16.6351 13.97294576106395

Śledź CZ-6A DEB w czasie rzeczywistym z AllMySat

Download on the App Store